Tracking 27124 objects as of 1-Apr-2023
HD Live streaming from Space Station
objects crossing your sky now

ORBCOMM FM 15

Track ORBCOMM FM 15 now!
10-day predictions
ORBCOMM FM 15 is classified as:


NORAD ID: 25418
Int'l Code: 1998-046F
Perigee: 782.2 km
Apogee: 786.8 km
Inclination: 45.0 °
Period: 100.4 minutes
Semi major axis: 7155 km
RCS: 0.6025 m2 (medium)
Launch date: August 2, 1998
Source: ORBCOMM (ORB)
Launch site: Pegasus launched from Eastern Range Air Space (ERAS)
Your satellite tracking list
Your tracking list is empty




NASA's NSSDC Master Catalog

Two Line Element Set (TLE):
1 25418U 98046F   23090.14885356  .00002783  00000-0  10312-2 0  9990
2 25418  44.9988  42.6265 0003221 239.7735 135.3712 14.34302030288126
Source of the keplerian elements: AFSPC